Time,TemperatureF,DewpointF,PressureIn,WindDirection,WindDirectionDegrees,WindSpeedMPH,WindSpeedGustMPH,Humidity,HourlyPrecipIn,Conditions,Clouds,dailyrainin,SoftwareType,DateUTC
2013-08-13 00:01:00,75.9,73.4,30.01,SSE,153,0.0,0.0,92,0.00,RA,,0.00,WeatherDisplay:10.37,2013-08-13 04:01:00,
2013-08-13 00:06:00,75.9,73.7,30.01,SSE,152,0.0,0.0,93,0.00,RA,,0.00,WeatherDisplay:10.37,2013-08-13 04:06:00,
2013-08-13 00:11:00,75.9,73.7,30.01,SSE,152,0.0,0.0,93,0.00,CLR,,0.00,WeatherDisplay:10.37,2013-08-13 04:11:00,
2013-08-13 00:16:00,75.9,73.7,30.00,SSE,153,0.0,0.0,93,0.00,CLR,,0.00,WeatherDisplay:10.37,2013-08-13 04:16:00,
2013-08-13 00:21:00,75.9,73.7,30.00,SSE,152,0.0,0.0,93,0.00,CLR,,0.00,WeatherDisplay:10.37,2013-08-13 04:21:00,
2013-08-13 00:26:00,76.0,73.8,30.00,SSE,152,0.0,0.0,93,0.00,CLR,,0.00,WeatherDisplay:10.37,2013-08-13 04:26:00,
2013-08-13 00:31:00,76.1,73.9,29.99,South,172,0.0,0.0,93,0.00,CLR,,0.00,WeatherDisplay:10.37,2013-08-13 04:31:00,
2013-08-13 00:36:00,76.2,74.0,30.00,South,171,0.0,0.0,93,0.00,CLR,,0.00,WeatherDisplay:10.37,2013-08-13 04:36:00,
2013-08-13 00:41:00,76.4,74.2,30.00,SSE,158,1.2,0.0,93,0.00,CLR,,0.00,WeatherDisplay:10.37,2013-08-13 04:41:00,
2013-08-13 00:46:00,76.5,74.6,30.00,South,169,0.0,0.0,94,0.00,CLR,,0.00,WeatherDisplay:10.37,2013-08-13 04:46:00,
2013-08-13 00:51:00,76.6,74.7,30.00,SE,142,0.0,0.1,94,0.00,CLR,,0.00,WeatherDisplay:10.37,2013-08-13 04:51:00,
2013-08-13 00:56:00,76.8,74.9,30.00,SSE,160,0.0,0.1,94,0.00,CLR,,0.00,WeatherDisplay:10.37,2013-08-13 04:56:00,
2013-08-13 01:01:00,76.9,75.0,30.00,SSE,159,0.0,0.0,94,0.00,CLR,,0.00,WeatherDisplay:10.37,2013-08-13 05:01:00,
2013-08-13 01:06:00,76.9,74.7,30.00,SSE,159,0.0,0.0,93,0.00,CLR,,0.00,WeatherDisplay:10.37,2013-08-13 05:06:00,
2013-08-13 01:11:00,77.0,74.8,30.00,SSE,160,0.0,0.0,93,0.00,CLR,,0.00,WeatherDisplay:10.37,2013-08-13 05:11:00,
2013-08-13 01:16:00,77.0,74.8,30.00,SSE,159,0.0,0.0,93,0.00,CLR,,0.00,WeatherDisplay:10.37,2013-08-13 05:16:00,
2013-08-13 01:21:00,77.0,74.8,29.99,SSE,161,0.0,0.0,93,0.00,CLR,,0.00,WeatherDisplay:10.37,2013-08-13 05:21:00,
2013-08-13 01:26:00,77.0,74.8,29.99,SSE,160,0.0,0.0,93,0.00,CLR,,0.00,WeatherDisplay:10.37,2013-08-13 05:26:00,
2013-08-13 01:31:00,77.0,74.8,29.99,SSE,160,0.0,0.0,93,0.00,CLR,,0.00,WeatherDisplay:10.37,2013-08-13 05:31:00,
2013-08-13 01:36:00,76.9,74.7,29.99,SSE,162,0.0,0.0,93,0.00,CLR,,0.00,WeatherDisplay:10.37,2013-08-13 05:36:00,
2013-08-13 01:41:00,76.9,74.7,29.99,SSE,160,0.0,0.0,93,0.00,CLR,,0.00,WeatherDisplay:10.37,2013-08-13 05:41:00,
2013-08-13 01:46:00,76.9,74.7,29.99,SSE,165,0.0,0.0,93,0.00,CLR,,0.00,WeatherDisplay:10.37,2013-08-13 05:46:00,
2013-08-13 01:51:00,76.9,74.7,29.99,SSE,164,0.0,0.0,93,0.00,CLR,,0.00,WeatherDisplay:10.37,2013-08-13 05:51:00,
2013-08-13 01:56:00,76.9,74.7,29.99,SSE,165,0.0,0.0,93,0.00,CLR,,0.00,WeatherDisplay:10.37,2013-08-13 05:56:00,
2013-08-13 02:01:00,76.9,74.7,29.99,SSE,165,0.0,0.0,93,0.00,CLR,,0.00,WeatherDisplay:10.37,2013-08-13 06:01:00,
2013-08-13 02:06:00,76.9,74.7,29.99,South,171,0.0,0.0,93,0.00,CLR,,0.00,WeatherDisplay:10.37,2013-08-13 06:06:00,
2013-08-13 02:11:00,76.9,74.7,29.98,South,172,0.0,0.0,93,0.00,CLR,,0.00,WeatherDisplay:10.37,2013-08-13 06:11:00,
2013-08-13 02:16:00,76.9,74.7,29.98,South,174,1.2,0.0,93,0.00,CLR,,0.00,WeatherDisplay:10.37,2013-08-13 06:16:00,
2013-08-13 02:21:00,76.9,74.7,29.98,South,173,0.0,0.0,93,0.00,CLR,,0.00,WeatherDisplay:10.37,2013-08-13 06:21:00,
2013-08-13 02:26:00,76.9,74.7,29.98,South,176,0.0,0.0,93,0.00,CLR,,0.00,WeatherDisplay:10.37,2013-08-13 06:26:00,
2013-08-13 02:31:00,76.9,74.7,29.98,South,175,0.0,0.0,93,0.00,CLR,,0.00,WeatherDisplay:10.37,2013-08-13 06:31:00,
2013-08-13 02:36:00,76.9,74.7,29.98,South,175,0.0,0.0,93,0.00,CLR,,0.00,WeatherDisplay:10.37,2013-08-13 06:36:00,
2013-08-13 02:41:00,76.9,74.7,29.97,South,175,0.0,0.0,93,0.00,CLR,,0.00,WeatherDisplay:10.37,2013-08-13 06:41:00,
2013-08-13 02:46:00,76.9,74.7,29.97,South,175,0.0,0.0,93,0.00,CLR,,0.00,WeatherDisplay:10.37,2013-08-13 06:46:00,
2013-08-13 02:51:00,76.9,74.7,29.97,South,175,0.0,0.0,93,0.00,CLR,,0.00,WeatherDisplay:10.37,2013-08-13 06:51:00,
2013-08-13 02:56:00,76.9,74.7,29.97,South,175,0.0,0.0,93,0.00,CLR,,0.00,WeatherDisplay:10.37,2013-08-13 06:56:00,
2013-08-13 03:01:00,76.9,74.7,29.97,South,179,0.0,0.0,93,0.00,CLR,,0.00,WeatherDisplay:10.37,2013-08-13 07:01:00,
2013-08-13 03:06:00,76.9,74.7,29.97,South,180,0.0,0.0,93,0.00,CLR,,0.00,WeatherDisplay:10.37,2013-08-13 07:06:00,
2013-08-13 03:11:00,76.9,74.7,29.97,South,181,0.0,0.0,93,0.00,CLR,,0.00,WeatherDisplay:10.37,2013-08-13 07:11:00,
2013-08-13 03:16:00,76.9,74.7,29.97,South,180,0.0,0.0,93,0.00,CLR,,0.00,WeatherDisplay:10.37,2013-08-13 07:16:00,
2013-08-13 03:21:00,76.9,74.7,29.97,South,178,0.0,0.0,93,0.00,CLR,,0.00,WeatherDisplay:10.37,2013-08-13 07:21:00,
2013-08-13 03:26:00,76.8,74.6,29.97,South,180,0.0,0.0,93,0.00,CLR,,0.00,WeatherDisplay:10.37,2013-08-13 07:26:00,
2013-08-13 03:31:00,76.8,74.6,29.97,South,180,0.0,0.0,93,0.00,CLR,,0.00,WeatherDisplay:10.37,2013-08-13 07:31:00,
2013-08-13 03:36:00,76.8,74.6,29.97,South,181,0.0,0.0,93,0.00,CLR,,0.00,WeatherDisplay:10.37,2013-08-13 07:36:00,
2013-08-13 03:41:00,76.8,74.6,29.97,South,180,0.0,0.0,93,0.00,CLR,,0.00,WeatherDisplay:10.37,2013-08-13 07:41:00,
2013-08-13 03:46:00,76.8,74.6,29.97,South,180,0.0,0.0,93,0.00,CLR,,0.00,WeatherDisplay:10.37,2013-08-13 07:46:00,
2013-08-13 03:51:00,76.8,74.6,29.96,South,181,0.0,0.0,93,0.00,CLR,,0.00,WeatherDisplay:10.37,2013-08-13 07:51:00,
2013-08-13 03:56:00,76.7,74.5,29.96,South,181,0.0,0.0,93,0.00,CLR,,0.00,WeatherDisplay:10.37,2013-08-13 07:56:00,
2013-08-13 04:01:00,76.8,74.6,29.97,South,180,0.0,0.0,93,0.00,CLR,,0.00,WeatherDisplay:10.37,2013-08-13 08:01:00,
2013-08-13 04:06:00,76.7,74.5,29.97,South,181,0.0,0.0,93,0.00,CLR,,0.00,WeatherDisplay:10.37,2013-08-13 08:06:00,
2013-08-13 04:11:00,76.7,74.5,29.97,South,180,0.0,0.0,93,0.00,CLR,,0.00,WeatherDisplay:10.37,2013-08-13 08:11:00,
2013-08-13 04:16:00,76.7,74.8,29.97,South,181,0.0,0.0,94,0.00,CLR,,0.00,WeatherDisplay:10.37,2013-08-13 08:16:00,
2013-08-13 04:21:00,76.6,74.7,29.97,South,180,0.0,0.0,94,0.00,CLR,,0.00,WeatherDisplay:10.37,2013-08-13 08:21:00,
2013-08-13 04:26:00,76.6,74.7,29.97,South,180,0.0,0.0,94,0.00,CLR,,0.00,WeatherDisplay:10.37,2013-08-13 08:26:00,
2013-08-13 04:31:00,76.6,74.7,29.97,South,182,0.0,0.0,94,0.00,CLR,,0.00,WeatherDisplay:10.37,2013-08-13 08:31:00,
2013-08-13 04:36:00,76.6,74.7,29.97,South,182,0.0,0.0,94,0.00,CLR,,0.00,WeatherDisplay:10.37,2013-08-13 08:36:00,
2013-08-13 04:41:00,76.5,74.6,29.97,South,182,0.0,0.0,94,0.00,CLR,,0.00,WeatherDisplay:10.37,2013-08-13 08:41:00,
2013-08-13 04:46:00,76.5,74.6,29.97,South,183,0.0,0.0,94,0.00,CLR,,0.00,WeatherDisplay:10.37,2013-08-13 08:46:00,
2013-08-13 04:51:00,76.5,74.6,29.97,South,182,0.0,0.0,94,0.00,CLR,,0.00,WeatherDisplay:10.37,2013-08-13 08:51:00,
2013-08-13 04:56:00,76.4,74.5,29.96,South,183,0.0,0.0,94,0.00,CLR,,0.00,WeatherDisplay:10.37,2013-08-13 08:56:00,
2013-08-13 05:01:00,76.4,74.5,29.96,South,183,0.0,0.0,94,0.00,CLR,,0.00,WeatherDisplay:10.37,2013-08-13 09:01:00,
2013-08-13 05:06:00,76.4,74.5,29.96,South,183,0.0,0.0,94,0.00,CLR,,0.00,WeatherDisplay:10.37,2013-08-13 09:06:00,
2013-08-13 05:11:00,76.3,74.4,29.96,South,183,0.0,0.0,94,0.00,CLR,,0.00,WeatherDisplay:10.37,2013-08-13 09:11:00,
2013-08-13 05:16:00,76.3,74.4,29.96,South,182,0.0,0.0,94,0.00,CLR,,0.00,WeatherDisplay:10.37,2013-08-13 09:16:00,
2013-08-13 05:21:00,76.2,74.3,29.96,South,186,0.0,0.0,94,0.00,CLR,,0.00,WeatherDisplay:10.37,2013-08-13 09:21:00,
2013-08-13 05:26:00,76.2,74.3,29.96,South,186,0.0,0.0,94,0.00,CLR,,0.00,WeatherDisplay:10.37,2013-08-13 09:26:00,
2013-08-13 05:31:00,76.2,74.3,29.96,South,186,0.0,0.0,94,0.00,CLR,,0.00,WeatherDisplay:10.37,2013-08-13 09:31:00,
2013-08-13 05:36:00,76.2,74.3,29.96,South,186,0.0,0.0,94,0.00,CLR,,0.00,WeatherDisplay:10.37,2013-08-13 09:36:00,
2013-08-13 05:41:00,76.1,74.2,29.96,South,187,0.0,0.0,94,0.00,CLR,,0.00,WeatherDisplay:10.37,2013-08-13 09:41:00,
2013-08-13 05:46:00,76.1,74.6,29.96,SSW,192,0.0,0.0,95,0.00,CLR,,0.00,WeatherDisplay:10.37,2013-08-13 09:46:00,
2013-08-13 05:51:00,76.1,74.6,29.96,SSW,199,0.0,0.0,95,0.00,CLR,,0.00,WeatherDisplay:10.37,2013-08-13 09:51:00,
2013-08-13 05:56:00,76.0,74.5,29.96,SSW,202,1.2,0.0,95,0.00,CLR,,0.00,WeatherDisplay:10.37,2013-08-13 09:56:00,
2013-08-13 06:01:00,76.0,74.5,29.96,SSW,203,0.0,0.0,95,0.00,CLR,,0.00,WeatherDisplay:10.37,2013-08-13 10:01:00,
2013-08-13 06:06:00,75.9,74.4,29.96,SSW,205,0.0,0.0,95,0.00,CLR,,0.00,WeatherDisplay:10.37,2013-08-13 10:06:00,
2013-08-13 06:11:00,75.9,74.4,29.96,SSW,204,0.0,0.0,95,0.00,CLR,,0.00,WeatherDisplay:10.37,2013-08-13 10:11:00,
2013-08-13 06:16:00,75.9,74.4,29.96,SSW,204,0.0,0.0,95,0.00,CLR,,0.00,WeatherDisplay:10.37,2013-08-13 10:16:00,
2013-08-13 06:21:00,75.8,74.3,29.96,SSW,204,0.0,0.0,95,0.00,CLR,,0.00,WeatherDisplay:10.37,2013-08-13 10:21:00,
2013-08-13 06:26:00,75.8,74.3,29.96,SSW,205,0.0,0.0,95,0.00,CLR,,0.00,WeatherDisplay:10.37,2013-08-13 10:26:00,
2013-08-13 06:31:00,75.8,74.3,29.96,SSW,206,0.0,0.0,95,0.00,CLR,,0.00,WeatherDisplay:10.37,2013-08-13 10:31:00,
2013-08-13 06:36:00,75.8,74.3,29.96,SSW,206,1.2,0.0,95,0.00,CLR,,0.00,WeatherDisplay:10.37,2013-08-13 10:36:00,
2013-08-13 06:41:00,75.7,74.2,29.97,SSW,206,0.0,0.0,95,0.00,CLR,,0.00,WeatherDisplay:10.37,2013-08-13 10:41:00,
2013-08-13 06:46:00,75.7,74.2,29.97,SSW,205,0.0,0.0,95,0.00,CLR,,0.00,WeatherDisplay:10.37,2013-08-13 10:46:00,
2013-08-13 06:51:00,75.7,74.2,29.96,SSW,205,0.0,0.0,95,0.00,CLR,,0.00,WeatherDisplay:10.37,2013-08-13 10:51:00,
2013-08-13 06:56:00,75.6,74.1,29.96,SSW,205,0.0,0.0,95,0.00,CLR,,0.00,WeatherDisplay:10.37,2013-08-13 10:56:00,
2013-08-13 07:01:00,75.6,74.1,29.97,SSW,206,0.0,0.0,95,0.00,CLR,,0.00,WeatherDisplay:10.37,2013-08-13 11:01:00,
2013-08-13 07:06:00,75.6,74.1,29.97,SSW,206,0.0,0.0,95,0.00,CLR,,0.00,WeatherDisplay:10.37,2013-08-13 11:06:00,
2013-08-13 07:11:00,75.6,74.1,29.97,SSW,206,0.0,0.0,95,0.00,CLR,,0.00,WeatherDisplay:10.37,2013-08-13 11:11:00,
2013-08-13 07:16:00,75.6,74.1,29.97,SSW,205,0.0,0.0,95,0.00,CLR,,0.00,WeatherDisplay:10.37,2013-08-13 11:16:00,
2013-08-13 07:21:00,75.6,74.1,29.97,SSW,206,1.2,0.0,95,0.00,CLR,,0.00,WeatherDisplay:10.37,2013-08-13 11:21:00,
2013-08-13 07:26:00,75.7,74.2,29.98,SSW,206,0.0,0.0,95,0.00,CLR,,0.00,WeatherDisplay:10.37,2013-08-13 11:26:00,
2013-08-13 07:31:00,75.9,74.4,29.98,SSW,206,0.0,0.0,95,0.00,CLR,,0.00,WeatherDisplay:10.37,2013-08-13 11:31:00,
2013-08-13 07:36:00,76.0,74.5,29.98,SSW,205,0.0,0.0,95,0.00,CLR,,0.00,WeatherDisplay:10.37,2013-08-13 11:36:00,
2013-08-13 07:41:00,76.1,74.6,29.98,SSW,205,0.0,0.0,95,0.00,CLR,,0.00,WeatherDisplay:10.37,2013-08-13 11:41:00,
2013-08-13 07:46:00,76.2,74.7,29.98,SSW,205,0.0,0.0,95,0.00,CLR,,0.00,WeatherDisplay:10.37,2013-08-13 11:46:00,
2013-08-13 07:51:00,76.4,74.9,29.98,SW,218,3.5,3.5,95,0.00,CLR,,0.00,WeatherDisplay:10.37,2013-08-13 11:51:00,
2013-08-13 07:56:00,76.4,74.9,29.98,SW,221,0.0,0.0,95,0.00,CLR,,0.00,WeatherDisplay:10.37,2013-08-13 11:56:00,
2013-08-13 08:01:00,76.6,75.1,29.98,SW,230,3.5,3.5,95,0.00,CLR,,0.00,WeatherDisplay:10.37,2013-08-13 12:01:00,
2013-08-13 08:06:00,76.8,75.3,29.98,SW,225,2.3,2.3,95,0.00,CLR,,0.00,WeatherDisplay:10.37,2013-08-13 12:06:00,
2013-08-13 08:11:00,76.9,75.4,29.98,SW,231,0.0,0.0,95,0.00,CLR,,0.00,WeatherDisplay:10.37,2013-08-13 12:11:00,
2013-08-13 08:16:00,77.1,75.2,29.98,SW,229,0.0,0.0,94,0.00,CLR,,0.00,WeatherDisplay:10.37,2013-08-13 12:16:00,
2013-08-13 08:21:00,77.4,75.5,29.98,SW,229,4.6,4.6,94,0.00,CLR,,0.00,WeatherDisplay:10.37,2013-08-13 12:21:00,
2013-08-13 08:26:00,77.7,75.8,29.98,SW,223,1.0,0.0,94,0.00,CLR,,0.00,WeatherDisplay:10.37,2013-08-13 12:26:00,
2013-08-13 08:31:00,77.9,75.7,29.98,SW,223,1.2,0.0,93,0.00,CLR,,0.00,WeatherDisplay:10.37,2013-08-13 12:31:00,
2013-08-13 08:36:00,78.2,75.7,29.98,WNW,298,3.5,0.0,92,0.00,CLR,,0.00,WeatherDisplay:10.37,2013-08-13 12:36:00,
2013-08-13 08:41:00,78.6,76.1,29.98,WSW,252,5.0,5.0,92,0.00,CLR,,0.00,WeatherDisplay:10.37,2013-08-13 12:41:00,
2013-08-13 08:46:00,78.8,75.9,29.98,SW,225,8.1,8.1,91,0.00,CLR,,0.00,WeatherDisplay:10.37,2013-08-13 12:46:00,
2013-08-13 08:51:00,79.1,75.9,29.98,WSW,254,1.2,0.0,90,0.00,CLR,,0.00,WeatherDisplay:10.37,2013-08-13 12:51:00,
2013-08-13 08:56:00,79.6,76.1,29.98,West,267,3.5,0.0,89,0.00,CLR,,0.00,WeatherDisplay:10.37,2013-08-13 12:56:00,
2013-08-13 09:01:00,79.8,75.9,29.98,West,272,3.5,0.0,88,0.00,CLR,,0.00,WeatherDisplay:10.37,2013-08-13 13:01:00,
2013-08-13 09:06:00,80.2,76.3,29.99,SW,228,4.6,0.0,88,0.00,CLR,,0.00,WeatherDisplay:10.37,2013-08-13 13:06:00,
2013-08-13 09:11:00,80.4,76.2,29.99,SW,229,3.5,0.0,87,0.00,CLR,,0.00,WeatherDisplay:10.37,2013-08-13 13:11:00,
2013-08-13 09:16:00,80.7,76.5,29.99,West,263,1.0,1.0,87,0.00,CLR,,0.00,WeatherDisplay:10.37,2013-08-13 13:16:00,
2013-08-13 09:21:00,80.9,76.7,29.99,West,259,3.5,3.5,87,0.00,CLR,,0.00,WeatherDisplay:10.37,2013-08-13 13:21:00,
2013-08-13 09:27:00,81.1,76.5,29.99,WNW,283,0.0,0.0,86,0.00,CLR,,0.00,WeatherDisplay:10.37,2013-08-13 13:27:00,
2013-08-13 09:32:00,81.4,76.8,29.99,SW,229,0.0,0.0,86,0.00,CLR,,0.00,WeatherDisplay:10.37,2013-08-13 13:32:00,
2013-08-13 09:37:00,81.8,76.8,29.99,SW,217,5.8,5.8,85,0.00,CLR,,0.00,WeatherDisplay:10.37,2013-08-13 13:37:00,
2013-08-13 09:42:00,82.1,76.8,29.99,WNW,288,1.2,0.0,84,0.00,CLR,,0.00,WeatherDisplay:10.37,2013-08-13 13:42:00,
2013-08-13 09:47:00,82.3,77.0,29.99,WNW,299,5.8,5.8,84,0.00,CLR,,0.00,WeatherDisplay:10.37,2013-08-13 13:47:00,
2013-08-13 09:52:00,82.2,76.5,29.99,West,259,10.4,10.4,83,0.00,CLR,,0.00,WeatherDisplay:10.37,2013-08-13 13:52:00,
2013-08-13 09:57:00,82.3,76.6,29.99,WNW,286,1.2,0.0,83,0.00,CLR,,0.00,WeatherDisplay:10.37,2013-08-13 13:57:00,
2013-08-13 10:02:00,82.5,76.4,29.99,West,273,4.6,0.0,82,0.00,CLR,,0.00,WeatherDisplay:10.37,2013-08-13 14:02:00,
2013-08-13 10:07:00,82.9,76.8,29.99,West,275,1.2,0.0,82,0.00,CLR,,0.00,WeatherDisplay:10.37,2013-08-13 14:07:00,
2013-08-13 10:12:00,83.2,76.8,29.99,WNW,294,6.9,6.9,81,0.00,CLR,,0.00,WeatherDisplay:10.37,2013-08-13 14:12:00,
2013-08-13 10:17:00,83.4,77.0,29.99,WNW,289,3.5,3.5,81,0.00,CLR,,0.00,WeatherDisplay:10.37,2013-08-13 14:17:00,
2013-08-13 10:22:00,83.6,76.4,29.99,WNW,300,6.0,6.0,79,0.00,CLR,,0.00,WeatherDisplay:10.37,2013-08-13 14:22:00,
2013-08-13 10:27:00,83.8,76.6,29.99,West,269,8.1,8.1,79,0.00,CLR,,0.00,WeatherDisplay:10.37,2013-08-13 14:27:00,
2013-08-13 10:32:00,84.0,76.8,29.99,WNW,287,1.2,0.0,79,0.00,CLR,,0.00,WeatherDisplay:10.37,2013-08-13 14:32:00,
2013-08-13 10:37:00,84.3,76.7,29.99,WNW,292,6.9,6.9,78,0.00,CLR,,0.00,WeatherDisplay:10.37,2013-08-13 14:37:00,
2013-08-13 10:42:00,84.5,76.9,29.99,WSW,252,5.8,5.8,78,0.00,CLR,,0.00,WeatherDisplay:10.37,2013-08-13 14:42:00,
2013-08-13 10:47:00,85.1,76.7,30.00,West,271,4.6,4.6,76,0.00,CLR,,0.00,WeatherDisplay:10.37,2013-08-13 14:47:00,
2013-08-13 10:52:00,85.2,76.8,30.00,WNW,298,9.2,9.2,76,0.00,CLR,,0.00,WeatherDisplay:10.37,2013-08-13 14:52:00,
2013-08-13 10:57:00,85.2,76.4,30.00,West,279,10.4,10.4,75,0.00,CLR,,0.00,WeatherDisplay:10.37,2013-08-13 14:57:00,
2013-08-13 11:02:00,85.4,77.0,30.00,West,272,6.9,6.9,76,0.00,CLR,,0.00,WeatherDisplay:10.37,2013-08-13 15:02:00,
2013-08-13 11:07:00,85.6,76.8,30.00,West,273,4.6,4.6,75,0.00,CLR,,0.00,WeatherDisplay:10.37,2013-08-13 15:07:00,
2013-08-13 11:12:00,85.9,77.1,30.00,West,265,3.5,3.5,75,0.00,CLR,,0.00,WeatherDisplay:10.37,2013-08-13 15:12:00,
2013-08-13 11:17:00,86.3,77.4,30.00,WNW,292,6.9,6.9,75,0.00,CLR,,0.00,WeatherDisplay:10.37,2013-08-13 15:17:00,
2013-08-13 11:22:00,86.9,77.6,30.00,WNW,284,1.2,1.2,74,0.00,CLR,,0.00,WeatherDisplay:10.37,2013-08-13 15:22:00,
2013-08-13 11:27:00,87.4,77.3,29.99,West,268,1.2,0.0,72,0.00,CLR,,0.00,WeatherDisplay:10.37,2013-08-13 15:27:00,
2013-08-13 11:32:00,87.4,77.3,29.99,West,279,5.8,5.8,72,0.00,CLR,,0.00,WeatherDisplay:10.37,2013-08-13 15:32:00,
2013-08-13 11:37:00,87.7,77.1,29.99,WNW,284,4.6,4.6,71,0.00,CLR,,0.00,WeatherDisplay:10.37,2013-08-13 15:37:00,
2013-08-13 11:42:00,87.9,76.9,29.99,WNW,286,6.9,6.9,70,0.00,CLR,,0.00,WeatherDisplay:10.37,2013-08-13 15:42:00,
2013-08-13 11:47:00,88.2,77.2,29.99,West,261,10.0,10.0,70,0.00,CLR,,0.00,WeatherDisplay:10.37,2013-08-13 15:47:00,
2013-08-13 11:52:00,88.5,77.0,29.99,WNW,292,3.5,3.5,69,0.00,CLR,,0.00,WeatherDisplay:10.37,2013-08-13 15:52:00,
2013-08-13 11:57:00,88.7,77.2,29.99,WNW,288,0.0,0.0,69,0.00,CLR,,0.00,WeatherDisplay:10.37,2013-08-13 15:57:00,
2013-08-13 12:02:00,88.7,76.8,29.99,WSW,253,6.9,6.9,68,0.00,CLR,,0.00,WeatherDisplay:10.37,2013-08-13 16:02:00,
2013-08-13 12:07:00,88.8,76.9,29.99,WNW,289,1.2,1.2,68,0.00,CLR,,0.00,WeatherDisplay:10.37,2013-08-13 16:07:00,
2013-08-13 12:12:00,88.8,76.4,29.98,WNW,288,10.4,10.4,67,0.00,CLR,,0.00,WeatherDisplay:10.37,2013-08-13 16:12:00,
2013-08-13 12:17:00,88.8,76.4,29.98,West,273,10.4,10.4,67,0.00,CLR,,0.00,WeatherDisplay:10.37,2013-08-13 16:17:00,
2013-08-13 12:22:00,88.9,77.0,29.98,West,278,5.8,5.8,68,0.00,CLR,,0.00,WeatherDisplay:10.37,2013-08-13 16:22:00,
2013-08-13 12:27:00,89.6,78.1,29.97,WSW,242,8.1,8.1,69,0.00,CLR,,0.00,WeatherDisplay:10.37,2013-08-13 16:27:00,
2013-08-13 12:32:00,89.7,77.7,29.97,SW,217,6.9,6.9,68,0.00,CLR,,0.00,WeatherDisplay:10.37,2013-08-13 16:32:00,
2013-08-13 12:37:00,90.0,77.1,29.97,WNW,284,6.9,6.9,66,0.00,CLR,,0.00,WeatherDisplay:10.37,2013-08-13 16:37:00,
2013-08-13 12:42:00,90.3,76.9,29.97,West,279,8.1,8.1,65,0.00,CLR,,0.00,WeatherDisplay:10.37,2013-08-13 16:42:00,
2013-08-13 12:47:00,90.5,77.1,29.97,WSW,238,8.1,8.1,65,0.00,CLR,,0.00,WeatherDisplay:10.37,2013-08-13 16:47:00,
2013-08-13 12:52:00,90.8,76.9,29.96,WNW,296,8.1,8.1,64,0.00,CLR,,0.00,WeatherDisplay:10.37,2013-08-13 16:52:00,
2013-08-13 12:57:00,90.9,77.0,29.96,WSW,244,11.5,11.5,64,0.00,CLR,,0.00,WeatherDisplay:10.37,2013-08-13 16:57:00,
2013-08-13 13:02:00,91.0,76.7,29.96,West,277,13.8,13.8,63,0.00,CLR,,0.00,WeatherDisplay:10.37,2013-08-13 17:02:00,
2013-08-13 13:07:00,91.0,77.1,29.96,WSW,237,8.1,8.1,64,0.00,CLR,,0.00,WeatherDisplay:10.37,2013-08-13 17:07:00,
2013-08-13 13:12:00,91.0,77.6,29.95,WSW,257,3.5,0.0,65,0.00,CLR,,0.00,WeatherDisplay:10.37,2013-08-13 17:12:00,
2013-08-13 13:17:00,91.2,76.8,29.95,SSW,207,11.5,11.5,63,0.00,CLR,,0.00,WeatherDisplay:10.37,2013-08-13 17:17:00,
2013-08-13 13:22:00,91.5,77.6,29.94,SW,228,3.5,0.0,64,0.00,CLR,,0.00,WeatherDisplay:10.37,2013-08-13 17:22:00,
2013-08-13 13:27:00,91.8,78.8,29.94,SSW,206,4.6,4.6,66,0.00,CLR,,0.00,WeatherDisplay:10.37,2013-08-13 17:27:00,
2013-08-13 13:32:00,91.8,77.9,29.94,SW,215,5.8,0.0,64,0.00,CLR,,0.00,WeatherDisplay:10.37,2013-08-13 17:32:00,
2013-08-13 13:37:00,91.8,77.9,29.94,SW,227,6.9,6.9,64,0.00,CLR,,0.00,WeatherDisplay:10.37,2013-08-13 17:37:00,
2013-08-13 13:42:00,91.8,77.4,29.94,SW,214,11.5,11.5,63,0.00,CLR,,0.00,WeatherDisplay:10.37,2013-08-13 17:42:00,
2013-08-13 13:47:00,91.6,77.2,29.94,West,273,8.1,8.1,63,0.00,CLR,,0.00,WeatherDisplay:10.37,2013-08-13 17:47:00,
2013-08-13 13:52:00,91.9,77.5,29.94,WNW,287,6.9,6.9,63,0.00,CLR,,0.00,WeatherDisplay:10.37,2013-08-13 17:52:00,
2013-08-13 13:57:00,91.8,77.4,29.94,SW,232,4.0,4.0,63,0.00,CLR,,0.00,WeatherDisplay:10.37,2013-08-13 17:57:00,
2013-08-13 14:02:00,92.1,77.7,29.93,WNW,297,7.0,7.0,63,0.00,CLR,,0.00,WeatherDisplay:10.37,2013-08-13 18:02:00,
2013-08-13 14:07:00,92.1,76.7,29.93,SW,235,9.2,9.2,61,0.00,CLR,,0.00,WeatherDisplay:10.37,2013-08-13 18:07:00,
2013-08-13 14:12:00,91.8,76.9,29.93,SW,228,12.0,12.0,62,0.00,CLR,,0.00,WeatherDisplay:10.37,2013-08-13 18:12:00,
2013-08-13 14:17:00,92.0,77.1,29.93,West,275,9.2,9.2,62,0.00,CLR,,0.00,WeatherDisplay:10.37,2013-08-13 18:17:00,
2013-08-13 14:22:00,92.2,77.3,29.92,SW,232,11.0,11.0,62,0.00,CLR,,0.00,WeatherDisplay:10.37,2013-08-13 18:22:00,
2013-08-13 14:27:00,92.4,78.0,29.92,WNW,283,8.1,8.1,63,0.00,CLR,,0.00,WeatherDisplay:10.37,2013-08-13 18:27:00,
2013-08-13 14:32:00,93.0,77.1,29.92,WSW,254,9.2,9.2,60,0.00,CLR,,0.00,WeatherDisplay:10.37,2013-08-13 18:32:00,
2013-08-13 14:37:00,93.1,77.7,29.92,SW,214,8.1,8.1,61,0.00,CLR,,0.00,WeatherDisplay:10.37,2013-08-13 18:37:00,
2013-08-13 14:42:00,93.3,77.3,29.92,WSW,256,5.0,5.0,60,0.00,CLR,,0.00,WeatherDisplay:10.37,2013-08-13 18:42:00,
2013-08-13 14:47:00,93.4,77.4,29.91,WSW,252,9.2,9.2,60,0.00,CLR,,0.00,WeatherDisplay:10.37,2013-08-13 18:47:00,
2013-08-13 14:52:00,93.4,76.9,29.91,WNW,288,6.9,6.9,59,0.00,CLR,,0.00,WeatherDisplay:10.37,2013-08-13 18:52:00,
2013-08-13 14:57:00,93.5,77.5,29.91,SW,219,11.5,11.5,60,0.00,CLR,,0.00,WeatherDisplay:10.37,2013-08-13 18:57:00,
2013-08-13 15:02:00,93.5,78.0,29.91,SW,229,8.0,8.0,61,0.00,CLR,,0.00,WeatherDisplay:10.37,2013-08-13 19:02:00,
2013-08-13 15:07:00,93.4,77.9,29.91,SW,230,7.0,7.0,61,0.00,CLR,,0.00,WeatherDisplay:10.37,2013-08-13 19:07:00,
2013-08-13 15:12:00,93.5,77.0,29.90,SW,223,11.5,11.5,59,0.00,CLR,,0.00,WeatherDisplay:10.37,2013-08-13 19:12:00,
2013-08-13 15:17:00,93.6,77.6,29.90,SSW,202,6.0,6.0,60,0.00,CLR,,0.00,WeatherDisplay:10.37,2013-08-13 19:17:00,
2013-08-13 15:22:00,93.7,78.2,29.90,SW,223,8.1,8.1,61,0.00,CLR,,0.00,WeatherDisplay:10.37,2013-08-13 19:22:00,
2013-08-13 15:27:00,93.4,77.4,29.90,West,269,5.8,5.8,60,0.00,CLR,,0.00,WeatherDisplay:10.37,2013-08-13 19:27:00,
2013-08-13 15:32:00,93.1,76.6,29.90,West,263,11.0,11.0,59,0.00,CLR,,0.00,WeatherDisplay:10.37,2013-08-13 19:32:00,
2013-08-13 15:37:00,93.0,76.6,29.90,SW,227,8.0,8.0,59,0.00,CLR,,0.00,WeatherDisplay:10.37,2013-08-13 19:37:00,
2013-08-13 15:42:00,92.8,76.4,29.89,ESE,110,11.5,11.5,59,0.00,CLR,,0.00,WeatherDisplay:10.37,2013-08-13 19:42:00,
2013-08-13 15:47:00,92.7,77.3,29.89,SW,219,5.8,5.8,61,0.00,CLR,,0.00,WeatherDisplay:10.37,2013-08-13 19:47:00,
2013-08-13 15:52:00,92.4,77.5,29.89,SW,217,5.8,5.8,62,0.00,CLR,,0.00,WeatherDisplay:10.37,2013-08-13 19:52:00,
2013-08-13 15:57:00,92.4,76.5,29.89,SW,221,6.9,6.9,60,0.00,CLR,,0.00,WeatherDisplay:10.37,2013-08-13 19:57:00,
2013-08-13 16:02:00,92.4,77.0,29.89,SW,229,6.9,6.9,61,0.00,CLR,,0.00,WeatherDisplay:10.37,2013-08-13 20:02:00,
2013-08-13 16:07:00,92.3,76.9,29.89,SW,215,5.0,5.0,61,0.00,CLR,,0.00,WeatherDisplay:10.37,2013-08-13 20:07:00,
2013-08-13 16:12:00,92.7,77.3,29.88,SW,228,8.1,8.1,61,0.00,CLR,,0.00,WeatherDisplay:10.37,2013-08-13 20:12:00,
2013-08-13 16:17:00,93.4,77.4,29.88,West,260,10.4,10.4,60,0.00,CLR,,0.00,WeatherDisplay:10.37,2013-08-13 20:17:00,
2013-08-13 16:22:00,93.7,77.7,29.88,WSW,248,9.2,9.2,60,0.00,CLR,,0.00,WeatherDisplay:10.37,2013-08-13 20:22:00,
2013-08-13 16:27:00,93.8,77.3,29.88,WNW,297,7.0,7.0,59,0.00,CLR,,0.00,WeatherDisplay:10.37,2013-08-13 20:27:00,
2013-08-13 16:32:00,93.6,76.6,29.88,SW,233,12.7,12.7,58,0.00,CLR,,0.00,WeatherDisplay:10.37,2013-08-13 20:32:00,
2013-08-13 16:37:00,93.5,77.5,29.88,SW,231,10.4,10.4,60,0.00,CLR,,0.00,WeatherDisplay:10.37,2013-08-13 20:37:00,
2013-08-13 16:42:00,93.4,76.9,29.88,WSW,254,8.1,8.1,59,0.00,CLR,,0.00,WeatherDisplay:10.37,2013-08-13 20:42:00,
2013-08-13 16:47:00,93.5,78.5,29.88,SW,222,7.0,7.0,62,0.00,CLR,,0.00,WeatherDisplay:10.37,2013-08-13 20:47:00,
2013-08-13 16:52:00,93.6,77.1,29.88,WSW,246,10.0,10.0,59,0.00,CLR,,0.00,WeatherDisplay:10.37,2013-08-13 20:52:00,
2013-08-13 16:57:00,93.7,78.2,29.88,SW,227,6.9,6.9,61,0.00,CLR,,0.00,WeatherDisplay:10.37,2013-08-13 20:57:00,
2013-08-13 17:02:00,93.7,77.7,29.88,SW,236,9.2,9.2,60,0.00,CLR,,0.00,WeatherDisplay:10.37,2013-08-13 21:02:00,
2013-08-13 17:07:00,93.4,78.4,29.88,SW,234,8.1,8.1,62,0.00,CLR,,0.00,WeatherDisplay:10.37,2013-08-13 21:07:00,
2013-08-13 17:12:00,92.9,77.0,29.88,SW,231,11.5,11.5,60,0.00,CLR,,0.00,WeatherDisplay:10.37,2013-08-13 21:12:00,
2013-08-13 17:17:00,92.6,77.2,29.87,SW,236,3.5,3.5,61,0.00,CLR,,0.00,WeatherDisplay:10.37,2013-08-13 21:17:00,
2013-08-13 17:22:00,92.6,77.7,29.87,WSW,255,6.0,6.0,62,0.00,CLR,,0.00,WeatherDisplay:10.37,2013-08-13 21:22:00,
2013-08-13 17:27:00,92.9,77.5,29.87,West,269,5.8,5.8,61,0.00,CLR,,0.00,WeatherDisplay:10.37,2013-08-13 21:27:00,
2013-08-13 17:32:00,93.3,77.8,29.87,SW,229,8.0,8.0,61,0.00,CLR,,0.00,WeatherDisplay:10.37,2013-08-13 21:32:00,
2013-08-13 17:37:00,93.5,78.5,29.87,SW,214,5.8,5.8,62,0.00,CLR,,0.00,WeatherDisplay:10.37,2013-08-13 21:37:00,
2013-08-13 17:42:00,93.5,78.0,29.86,SW,234,5.8,5.8,61,0.00,CLR,,0.00,WeatherDisplay:10.37,2013-08-13 21:42:00,
2013-08-13 17:47:00,93.6,78.1,29.86,WSW,240,4.0,4.0,61,0.00,CLR,,0.00,WeatherDisplay:10.37,2013-08-13 21:47:00,
2013-08-13 17:52:00,93.6,77.6,29.87,West,279,6.9,6.9,60,0.00,CLR,,0.00,WeatherDisplay:10.37,2013-08-13 21:52:00,
2013-08-13 17:57:00,93.4,77.9,29.87,SW,229,5.8,5.8,61,0.00,CLR,,0.00,WeatherDisplay:10.37,2013-08-13 21:57:00,
2013-08-13 18:03:00,93.4,78.9,29.87,SW,217,6.0,6.0,63,0.00,CLR,,0.00,WeatherDisplay:10.37,2013-08-13 22:03:00,
2013-08-13 18:08:00,93.3,78.3,29.87,West,261,3.5,3.5,62,0.00,CLR,,0.00,WeatherDisplay:10.37,2013-08-13 22:08:00,
2013-08-13 18:13:00,93.3,77.3,29.86,WSW,240,9.2,9.2,60,0.00,CLR,,0.00,WeatherDisplay:10.37,2013-08-13 22:13:00,
2013-08-13 18:18:00,93.1,77.7,29.86,West,277,6.9,6.9,61,0.00,CLR,,0.00,WeatherDisplay:10.37,2013-08-13 22:18:00,
2013-08-13 18:23:00,93.1,77.7,29.86,WSW,254,0.0,0.0,61,0.00,CLR,,0.00,WeatherDisplay:10.37,2013-08-13 22:23:00,
2013-08-13 18:28:00,93.0,77.6,29.86,SW,215,7.0,7.0,61,0.00,CLR,,0.00,WeatherDisplay:10.37,2013-08-13 22:28:00,
2013-08-13 18:33:00,92.8,77.9,29.86,WSW,245,2.3,2.3,62,0.00,CLR,,0.00,WeatherDisplay:10.37,2013-08-13 22:33:00,
2013-08-13 18:38:00,92.7,77.8,29.86,SW,219,4.6,4.6,62,0.00,CLR,,0.00,WeatherDisplay:10.37,2013-08-13 22:38:00,
2013-08-13 18:43:00,92.6,77.7,29.86,SW,217,3.5,3.5,62,0.00,CLR,,0.00,WeatherDisplay:10.37,2013-08-13 22:43:00,
2013-08-13 18:48:00,92.5,78.1,29.85,SW,219,0.0,0.0,63,0.00,CLR,,0.00,WeatherDisplay:10.37,2013-08-13 22:48:00,
2013-08-13 18:53:00,92.4,78.4,29.85,SW,218,0.0,0.0,64,0.00,CLR,,0.00,WeatherDisplay:10.37,2013-08-13 22:53:00,
2013-08-13 18:58:00,92.4,78.4,29.85,SW,218,0.0,0.0,64,0.00,CLR,,0.00,WeatherDisplay:10.37,2013-08-13 22:58:00,
2013-08-13 19:03:00,92.2,77.8,29.85,SW,218,3.5,3.5,63,0.00,CLR,,0.00,WeatherDisplay:10.37,2013-08-13 23:03:00,
2013-08-13 19:08:00,92.0,78.1,29.85,SW,218,0.0,0.0,64,0.00,CLR,,0.00,WeatherDisplay:10.37,2013-08-13 23:08:00,
2013-08-13 19:13:00,91.8,78.4,29.85,SW,218,0.0,0.0,65,0.00,CLR,,0.00,WeatherDisplay:10.37,2013-08-13 23:13:00,
2013-08-13 19:18:00,91.5,78.5,29.85,SW,218,0.0,0.0,66,0.00,CLR,,0.00,WeatherDisplay:10.37,2013-08-13 23:18:00,
2013-08-13 19:23:00,91.1,78.6,29.85,SW,218,0.0,0.0,67,0.00,CLR,,0.00,WeatherDisplay:10.37,2013-08-13 23:23:00,
2013-08-13 19:28:00,90.9,78.4,29.85,SW,217,0.0,0.0,67,0.00,CLR,,0.00,WeatherDisplay:10.37,2013-08-13 23:28:00,
2013-08-13 19:33:00,90.6,79.0,29.86,SW,218,0.0,0.0,69,0.00,CLR,,0.00,WeatherDisplay:10.37,2013-08-13 23:33:00,
2013-08-13 19:38:00,90.4,79.3,29.86,SW,217,0.0,0.0,70,0.00,CLR,,0.00,WeatherDisplay:10.37,2013-08-13 23:38:00,
2013-08-13 19:43:00,90.0,78.9,29.86,SW,217,0.0,0.0,70,0.00,CLR,,0.00,WeatherDisplay:10.37,2013-08-13 23:43:00,
2013-08-13 19:48:00,89.6,79.4,29.87,NW,313,1.2,1.2,72,0.00,CLR,,0.00,WeatherDisplay:10.37,2013-08-13 23:48:00,
2013-08-13 19:53:00,88.3,76.8,29.87,West,277,14.0,14.0,69,0.00,CLR,,0.00,WeatherDisplay:10.37,2013-08-13 23:53:00,
2013-08-13 19:58:00,87.5,76.5,29.88,WNW,290,6.9,6.9,70,0.00,CLR,,0.00,WeatherDisplay:10.37,2013-08-13 23:58:00,
2013-08-13 20:03:00,87.1,76.5,29.88,WNW,284,9.2,9.2,71,0.00,CLR,,0.00,WeatherDisplay:10.37,2013-08-14 00:03:00,
2013-08-13 20:08:00,86.7,76.2,29.88,West,278,3.5,3.5,71,0.00,CLR,,0.00,WeatherDisplay:10.37,2013-08-14 00:08:00,
2013-08-13 20:13:00,86.3,76.2,29.88,West,268,6.9,6.9,72,0.00,CLR,,0.00,WeatherDisplay:10.37,2013-08-14 00:13:00,
2013-08-13 20:18:00,85.8,75.3,29.87,West,268,5.8,5.8,71,0.00,CLR,,0.00,WeatherDisplay:10.37,2013-08-14 00:18:00,
2013-08-13 20:23:00,85.5,75.4,29.88,West,273,7.0,7.0,72,0.00,CLR,,0.00,WeatherDisplay:10.37,2013-08-14 00:23:00,
2013-08-13 20:28:00,85.1,75.9,29.89,WSW,252,1.2,1.2,74,0.00,CLR,,0.00,WeatherDisplay:10.37,2013-08-14 00:28:00,
2013-08-13 20:33:00,84.7,75.5,29.88,WSW,237,0.0,0.0,74,0.00,CLR,,0.00,WeatherDisplay:10.37,2013-08-14 00:33:00,
2013-08-13 20:38:00,84.3,74.7,29.89,SW,221,3.5,3.5,73,0.00,CLR,,0.00,WeatherDisplay:10.37,2013-08-14 00:38:00,
2013-08-13 20:43:00,83.9,74.7,29.89,SW,217,0.0,0.0,74,0.00,CLR,,0.00,WeatherDisplay:10.37,2013-08-14 00:43:00,
2013-08-13 20:48:00,83.5,75.1,29.89,SW,223,5.8,5.8,76,0.00,CLR,,0.00,WeatherDisplay:10.37,2013-08-14 00:48:00,
2013-08-13 20:53:00,83.0,75.0,29.89,SW,221,0.0,0.1,77,0.00,CLR,,0.00,WeatherDisplay:10.37,2013-08-14 00:53:00,
2013-08-13 20:58:00,82.6,75.4,29.89,SW,234,0.0,0.0,79,0.00,CLR,,0.00,WeatherDisplay:10.37,2013-08-14 00:58:00,
2013-08-13 21:03:00,82.3,75.1,29.89,SW,233,0.0,0.0,79,0.00,CLR,,0.00,WeatherDisplay:10.37,2013-08-14 01:03:00,
2013-08-13 21:08:00,82.1,75.3,29.89,SW,234,0.0,0.0,80,0.00,CLR,,0.00,WeatherDisplay:10.37,2013-08-14 01:08:00,
2013-08-13 21:13:00,81.8,75.4,29.89,SW,234,0.0,0.0,81,0.00,CLR,,0.00,WeatherDisplay:10.37,2013-08-14 01:13:00,
2013-08-13 21:18:00,81.6,75.2,29.89,SW,234,0.0,0.0,81,0.00,CLR,,0.00,WeatherDisplay:10.37,2013-08-14 01:18:00,
2013-08-13 21:23:00,81.4,75.0,29.89,SW,234,0.0,0.0,81,0.00,CLR,,0.00,WeatherDisplay:10.37,2013-08-14 01:23:00,
2013-08-13 21:28:00,81.2,75.2,29.90,SW,233,0.0,0.0,82,0.00,CLR,,0.00,WeatherDisplay:10.37,2013-08-14 01:28:00,
2013-08-13 21:33:00,81.1,75.1,29.90,SW,233,0.0,0.0,82,0.00,CLR,,0.00,WeatherDisplay:10.37,2013-08-14 01:33:00,
2013-08-13 21:38:00,80.9,75.2,29.90,SW,234,0.0,0.0,83,0.00,CLR,,0.00,WeatherDisplay:10.37,2013-08-14 01:38:00,
2013-08-13 21:43:00,80.8,75.2,29.90,SW,233,0.0,0.0,83,0.00,CLR,,0.00,WeatherDisplay:10.37,2013-08-14 01:43:00,
2013-08-13 21:48:00,80.7,75.1,29.90,SW,233,0.0,0.0,83,0.00,CLR,,0.00,WeatherDisplay:10.37,2013-08-14 01:48:00,
2013-08-13 21:53:00,80.6,75.3,29.90,SW,234,0.0,0.0,84,0.00,CLR,,0.00,WeatherDisplay:10.37,2013-08-14 01:53:00,
2013-08-13 21:58:00,80.5,75.2,29.90,SW,233,0.0,0.0,84,0.00,CLR,,0.00,WeatherDisplay:10.37,2013-08-14 01:58:00,
2013-08-13 22:03:00,80.4,75.1,29.91,SW,234,0.0,0.0,84,0.00,CLR,,0.00,WeatherDisplay:10.37,2013-08-14 02:03:00,
2013-08-13 22:08:00,80.3,75.0,29.91,SW,234,0.0,0.0,84,0.00,CLR,,0.00,WeatherDisplay:10.37,2013-08-14 02:08:00,
2013-08-13 22:13:00,80.2,75.3,29.91,SW,234,0.0,0.0,85,0.00,CLR,,0.00,WeatherDisplay:10.37,2013-08-14 02:13:00,
2013-08-13 22:18:00,80.2,75.3,29.91,SW,233,0.0,0.0,85,0.00,CLR,,0.00,WeatherDisplay:10.37,2013-08-14 02:18:00,
2013-08-13 22:23:00,80.1,75.2,29.92,SW,234,1.2,1.2,85,0.00,CLR,,0.00,WeatherDisplay:10.37,2013-08-14 02:23:00,
2013-08-13 22:28:00,80.0,75.4,29.91,SW,234,0.0,0.0,86,0.00,CLR,,0.00,WeatherDisplay:10.37,2013-08-14 02:28:00,
2013-08-13 22:33:00,79.9,75.3,29.92,SW,234,0.0,0.0,86,0.00,CLR,,0.00,WeatherDisplay:10.37,2013-08-14 02:33:00,
2013-08-13 22:38:00,79.8,75.6,29.91,SW,234,0.0,0.0,87,0.00,CLR,,0.00,WeatherDisplay:10.37,2013-08-14 02:38:00,
2013-08-13 22:43:00,79.6,75.4,29.92,SW,234,0.0,0.0,87,0.00,CLR,,0.00,WeatherDisplay:10.37,2013-08-14 02:43:00,
2013-08-13 22:48:00,79.5,75.3,29.92,SW,234,0.0,0.0,87,0.00,CLR,,0.00,WeatherDisplay:10.37,2013-08-14 02:48:00,
2013-08-13 22:53:00,79.3,75.4,29.92,SW,233,0.0,0.0,88,0.00,CLR,,0.00,WeatherDisplay:10.37,2013-08-14 02:53:00,
2013-08-13 22:58:00,79.2,75.3,29.92,SW,233,0.0,0.0,88,0.00,CLR,,0.00,WeatherDisplay:10.37,2013-08-14 02:58:00,
2013-08-13 23:03:00,79.0,75.1,29.92,SW,234,0.0,0.0,88,0.00,CLR,,0.00,WeatherDisplay:10.37,2013-08-14 03:03:00,
2013-08-13 23:08:00,78.9,75.0,29.92,SW,234,0.0,0.0,88,0.00,CLR,,0.00,WeatherDisplay:10.37,2013-08-14 03:08:00,
2013-08-13 23:13:00,78.8,74.9,29.92,SW,234,0.0,0.0,88,0.00,CLR,,0.00,WeatherDisplay:10.37,2013-08-14 03:13:00,
2013-08-13 23:18:00,78.7,75.2,29.92,SW,233,0.0,0.0,89,0.00,CLR,,0.00,WeatherDisplay:10.37,2013-08-14 03:18:00,
2013-08-13 23:23:00,78.7,75.2,29.93,SW,233,0.0,0.0,89,0.00,CLR,,0.00,WeatherDisplay:10.37,2013-08-14 03:23:00,
2013-08-13 23:28:00,78.7,75.2,29.93,SW,234,0.0,0.0,89,0.00,CLR,,0.00,WeatherDisplay:10.37,2013-08-14 03:28:00,
2013-08-13 23:33:00,78.6,75.1,29.93,SW,234,0.0,0.0,89,0.00,CLR,,0.00,WeatherDisplay:10.37,2013-08-14 03:33:00,
2013-08-13 23:38:00,78.5,75.0,29.93,SW,233,0.0,0.0,89,0.00,CLR,,0.00,WeatherDisplay:10.37,2013-08-14 03:38:00,
2013-08-13 23:43:00,78.4,74.9,29.92,SW,234,0.0,0.0,89,0.00,CLR,,0.00,WeatherDisplay:10.37,2013-08-14 03:43:00,
2013-08-13 23:48:00,78.3,74.8,29.92,SW,234,0.0,0.0,89,0.00,CLR,,0.00,WeatherDisplay:10.37,2013-08-14 03:48:00,
2013-08-13 23:53:00,78.2,74.7,29.92,SW,233,0.0,0.0,89,0.00,CLR,,0.00,WeatherDisplay:10.37,2013-08-14 03:53:00,
2013-08-13 23:58:00,78.1,74.6,29.92,SW,233,0.0,0.0,89,0.00,CLR,,0.00,WeatherDisplay:10.37,2013-08-14 03:58:00,